Location: Newark
(7.0858°N, 171.3717°E)
Time: 07:10:50
(UTC+00:00)

Courier 1B - Pass Details

Date: 28 November 2020
Orbit: 962 x 1209 km, 28.3° (Epoch: 20 January)

Event Time Altitude Azimuth Distance (km) Brightness Sun altitude
Rises 10:49:15 0° 287° (WNW) 3,700 - -63.3°
Reaches altitude 10° 10:52:57 10° 307° (NW) 2,790 - -64.0°
Maximum altitude 10:57:12 17° 346° (NNW) 2,357 - -64.9°
Drops below altitude 10° 11:01:35 10° 25° (NNE) 2,900 - -65.7°
Sets 11:05:33 0° 45° (NE) 3,911 - -66.5°
